Time,TemperatureF,DewpointF,PressureIn,WindDirection,WindDirectionDegrees,WindSpeedMPH,WindSpeedGustMPH,Humidity,HourlyPrecipIn,Conditions,Clouds,dailyrainin,SolarRadiationWatts/m^2,SoftwareType,DateUTC
2013-05-18 00:02:00,64.0,64.0,-100.00,SE,140,2.0,9.0,100,0.30,,,0.66,0.000000,,2013-05-18 05:02:00,
2013-05-18 00:32:00,64.0,64.0,-100.00,SSW,205,3.0,7.0,100,0.04,,,0.70,0.000000,,2013-05-18 05:32:00,
2013-05-18 00:42:00,64.0,64.0,-100.00,SSW,205,3.0,7.0,100,0.04,,,0.70,0.000000,,2013-05-18 05:42:00,
2013-05-18 00:52:00,64.0,64.0,-100.00,SSW,205,3.0,7.0,100,0.04,,,0.70,0.000000,,2013-05-18 05:52:00,
2013-05-18 01:02:00,64.0,64.0,-100.00,SSW,205,3.0,7.0,100,0.04,,,0.70,0.000000,,2013-05-18 06:02:00,
2013-05-18 01:32:00,63.0,63.0,-100.00,South,171,2.0,7.0,100,0.01,,,0.71,0.000000,,2013-05-18 06:32:00,
2013-05-18 01:42:00,63.0,63.0,-100.00,South,171,2.0,7.0,100,0.01,,,0.71,0.000000,,2013-05-18 06:42:00,
2013-05-18 01:52:00,63.0,63.0,-100.00,South,171,2.0,7.0,100,0.01,,,0.71,0.000000,,2013-05-18 06:52:00,
2013-05-18 02:01:00,63.0,63.0,-100.00,South,171,2.0,7.0,100,0.01,,,0.71,0.000000,,2013-05-18 07:01:00,
2013-05-18 02:32:00,63.0,63.0,-100.00,SE,130,1.0,3.0,100,0.00,,,0.71,0.000000,,2013-05-18 07:32:00,
2013-05-18 02:43:00,63.0,63.0,-100.00,SE,130,1.0,3.0,100,0.00,,,0.71,0.000000,,2013-05-18 07:43:00,
2013-05-18 02:52:00,63.0,63.0,-100.00,SE,130,1.0,3.0,100,0.00,,,0.71,0.000000,,2013-05-18 07:52:00,
2013-05-18 03:01:00,63.0,63.0,-100.00,SE,130,1.0,3.0,100,0.00,,,0.71,0.000000,,2013-05-18 08:01:00,
2013-05-18 03:33:00,63.0,63.0,-100.00,SSE,163,1.0,3.0,100,0.00,,,0.71,0.000000,,2013-05-18 08:33:00,
2013-05-18 03:42:00,63.0,63.0,-100.00,SSE,163,1.0,3.0,100,0.00,,,0.71,0.000000,,2013-05-18 08:42:00,
2013-05-18 03:52:00,63.0,63.0,-100.00,SSE,163,1.0,3.0,100,0.00,,,0.71,0.000000,,2013-05-18 08:52:00,
2013-05-18 04:02:00,63.0,63.0,-100.00,SSE,163,1.0,3.0,100,0.00,,,0.71,0.000000,,2013-05-18 09:02:00,
2013-05-18 04:33:00,63.0,63.0,-100.00,South,187,1.0,4.0,100,0.00,,,0.71,0.000000,,2013-05-18 09:33:00,
2013-05-18 04:43:00,63.0,63.0,-100.00,South,187,1.0,4.0,100,0.00,,,0.71,0.000000,,2013-05-18 09:43:00,
2013-05-18 04:53:00,63.0,63.0,-100.00,South,187,1.0,4.0,100,0.00,,,0.71,0.000000,,2013-05-18 09:53:00,
2013-05-18 05:03:00,63.0,63.0,-100.00,South,187,1.0,4.0,100,0.00,,,0.71,0.000000,,2013-05-18 10:03:00,
2013-05-18 05:33:00,63.0,63.0,-100.00,South,171,2.0,5.0,100,0.00,,,0.71,0.000000,,2013-05-18 10:33:00,
2013-05-18 05:42:00,63.0,63.0,-100.00,South,171,2.0,5.0,100,0.00,,,0.71,0.000000,,2013-05-18 10:42:00,
2013-05-18 05:53:00,63.0,63.0,-100.00,South,171,2.0,5.0,100,0.00,,,0.71,0.000000,,2013-05-18 10:53:00,
2013-05-18 06:03:00,63.0,63.0,-100.00,South,171,2.0,5.0,100,0.00,,,0.71,0.000000,,2013-05-18 11:03:00,
2013-05-18 06:33:00,63.0,63.0,-100.00,SSW,206,2.0,5.0,100,0.00,,,0.71,6.000000,,2013-05-18 11:33:00,
2013-05-18 06:42:00,63.0,63.0,-100.00,SSW,206,2.0,5.0,100,0.00,,,0.71,6.000000,,2013-05-18 11:42:00,
2013-05-18 06:52:00,63.0,63.0,-100.00,SSW,206,2.0,5.0,100,0.00,,,0.71,6.000000,,2013-05-18 11:52:00,
2013-05-18 07:01:00,63.0,63.0,-100.00,SSW,206,2.0,5.0,100,0.00,,,0.71,6.000000,,2013-05-18 12:01:00,
2013-05-18 07:33:00,64.0,64.0,-100.00,South,177,2.0,4.0,100,0.00,,,0.71,32.000000,,2013-05-18 12:33:00,
2013-05-18 07:42:00,64.0,64.0,-100.00,South,177,2.0,4.0,100,0.00,,,0.71,32.000000,,2013-05-18 12:42:00,
2013-05-18 07:52:00,64.0,64.0,-100.00,South,177,2.0,4.0,100,0.00,,,0.71,32.000000,,2013-05-18 12:52:00,
2013-05-18 08:01:00,64.0,64.0,-100.00,South,177,2.0,4.0,100,0.00,,,0.71,32.000000,,2013-05-18 13:01:00,
2013-05-18 08:33:00,66.0,66.0,-100.00,South,177,4.0,6.0,100,0.00,,,0.71,92.000000,,2013-05-18 13:33:00,
2013-05-18 08:43:00,66.0,66.0,-100.00,South,177,4.0,6.0,100,0.00,,,0.71,92.000000,,2013-05-18 13:43:00,
2013-05-18 08:53:00,66.0,66.0,-100.00,South,177,4.0,6.0,100,0.00,,,0.71,92.000000,,2013-05-18 13:53:00,
2013-05-18 09:03:00,66.0,66.0,-100.00,South,177,4.0,6.0,100,0.00,,,0.71,92.000000,,2013-05-18 14:03:00,
2013-05-18 09:33:00,69.0,69.0,-100.00,SSW,211,3.0,7.0,100,0.00,,,0.71,208.000000,,2013-05-18 14:33:00,
2013-05-18 09:42:00,69.0,69.0,-100.00,SSW,211,3.0,7.0,100,0.00,,,0.71,208.000000,,2013-05-18 14:42:00,
2013-05-18 09:54:00,69.0,69.0,-100.00,SSW,211,3.0,7.0,100,0.00,,,0.71,208.000000,,2013-05-18 14:54:00,
2013-05-18 10:03:00,69.0,69.0,-100.00,SSW,211,3.0,7.0,100,0.00,,,0.71,208.000000,,2013-05-18 15:03:00,
2013-05-18 10:33:00,70.0,70.0,-100.00,SW,220,4.0,7.0,99,0.00,,,0.71,214.000000,,2013-05-18 15:33:00,
2013-05-18 10:43:00,70.0,70.0,-100.00,SW,220,4.0,7.0,99,0.00,,,0.71,214.000000,,2013-05-18 15:43:00,
2013-05-18 10:53:00,70.0,70.0,-100.00,SW,220,4.0,7.0,99,0.00,,,0.71,214.000000,,2013-05-18 15:53:00,
2013-05-18 11:02:00,70.0,70.0,-100.00,SW,220,4.0,7.0,99,0.00,,,0.71,214.000000,,2013-05-18 16:02:00,
2013-05-18 11:33:00,70.0,69.0,-100.00,SSW,211,3.0,6.0,98,0.00,,,0.68,217.000000,,2013-05-18 16:33:00,
2013-05-18 11:42:00,70.0,69.0,-100.00,SSW,211,3.0,6.0,98,0.00,,,0.68,217.000000,,2013-05-18 16:42:00,
2013-05-18 11:52:00,70.0,69.0,-100.00,SSW,211,3.0,6.0,98,0.00,,,0.68,217.000000,,2013-05-18 16:52:00,
2013-05-18 12:02:00,70.0,69.0,-100.00,SSW,211,3.0,6.0,98,0.00,,,0.68,217.000000,,2013-05-18 17:02:00,
2013-05-18 12:33:00,76.0,72.0,-100.00,SSW,203,3.0,8.0,88,0.00,,,0.65,479.000000,,2013-05-18 17:33:00,
2013-05-18 12:42:00,76.0,72.0,-100.00,SSW,203,3.0,8.0,88,0.00,,,0.65,479.000000,,2013-05-18 17:42:00,
2013-05-18 12:52:00,76.0,72.0,-100.00,SSW,203,3.0,8.0,88,0.00,,,0.65,479.000000,,2013-05-18 17:52:00,
2013-05-18 13:01:00,76.0,72.0,-100.00,SSW,203,3.0,8.0,88,0.00,,,0.65,479.000000,,2013-05-18 18:01:00,
2013-05-18 13:32:00,74.0,67.0,-100.00,SSW,208,3.0,9.0,78,0.00,,,0.51,388.000000,,2013-05-18 18:32:00,
2013-05-18 13:42:00,74.0,67.0,-100.00,SSW,208,3.0,9.0,78,0.00,,,0.51,388.000000,,2013-05-18 18:42:00,
2013-05-18 13:52:00,74.0,67.0,-100.00,SSW,208,3.0,9.0,78,0.00,,,0.51,388.000000,,2013-05-18 18:52:00,
2013-05-18 14:02:00,74.0,67.0,-100.00,SSW,208,3.0,9.0,78,0.00,,,0.51,388.000000,,2013-05-18 19:02:00,
2013-05-18 14:32:00,76.0,69.0,-100.00,SW,222,4.0,7.0,79,0.00,,,0.39,377.000000,,2013-05-18 19:32:00,
2013-05-18 14:42:00,76.0,69.0,-100.00,SW,222,4.0,7.0,79,0.00,,,0.39,377.000000,,2013-05-18 19:42:00,
2013-05-18 14:52:00,76.0,69.0,-100.00,SW,222,4.0,7.0,79,0.00,,,0.39,377.000000,,2013-05-18 19:52:00,
2013-05-18 15:02:00,76.0,69.0,-100.00,SW,222,4.0,7.0,79,0.00,,,0.39,377.000000,,2013-05-18 20:02:00,
2013-05-18 15:32:00,79.0,70.0,-100.00,SW,219,4.0,8.0,74,0.00,,,0.35,459.000000,,2013-05-18 20:32:00,
2013-05-18 15:42:00,79.0,70.0,-100.00,SW,219,4.0,8.0,74,0.00,,,0.35,459.000000,,2013-05-18 20:42:00,
2013-05-18 15:52:00,79.0,70.0,-100.00,SW,219,4.0,8.0,74,0.00,,,0.35,459.000000,,2013-05-18 20:52:00,
2013-05-18 16:01:00,79.0,70.0,-100.00,SW,219,4.0,8.0,74,0.00,,,0.35,459.000000,,2013-05-18 21:01:00,
2013-05-18 16:33:00,80.0,69.0,-100.00,SW,216,3.0,7.0,69,0.00,,,0.35,511.000000,,2013-05-18 21:33:00,
2013-05-18 16:44:00,80.0,69.0,-100.00,SW,216,3.0,7.0,69,0.00,,,0.35,511.000000,,2013-05-18 21:44:00,
2013-05-18 16:53:00,80.0,69.0,-100.00,SW,216,3.0,7.0,69,0.00,,,0.35,511.000000,,2013-05-18 21:53:00,
2013-05-18 17:03:00,80.0,69.0,-100.00,SW,216,3.0,7.0,69,0.00,,,0.35,511.000000,,2013-05-18 22:03:00,
2013-05-18 17:33:00,80.0,68.0,-100.00,SW,218,3.0,8.0,68,0.00,,,0.35,440.000000,,2013-05-18 22:33:00,
2013-05-18 17:42:00,80.0,68.0,-100.00,SW,218,3.0,8.0,68,0.00,,,0.35,440.000000,,2013-05-18 22:42:00,
2013-05-18 17:53:00,80.0,68.0,-100.00,SW,218,3.0,8.0,68,0.00,,,0.35,440.000000,,2013-05-18 22:53:00,
2013-05-18 18:01:00,80.0,68.0,-100.00,SW,218,3.0,8.0,68,0.00,,,0.35,440.000000,,2013-05-18 23:01:00,
2013-05-18 18:32:00,80.0,72.0,-100.00,West,270,2.0,4.0,76,0.00,,,0.35,174.000000,,2013-05-18 23:32:00,
2013-05-18 18:42:00,80.0,72.0,-100.00,West,270,2.0,4.0,76,0.00,,,0.35,174.000000,,2013-05-18 23:42:00,
2013-05-18 18:53:00,80.0,72.0,-100.00,West,270,2.0,4.0,76,0.00,,,0.35,174.000000,,2013-05-18 23:53:00,
2013-05-18 19:01:00,80.0,72.0,-100.00,West,270,2.0,4.0,76,0.00,,,0.35,174.000000,,2013-05-19 00:01:00,
2013-05-18 20:32:00,72.0,67.0,-100.00,SE,136,0.0,1.0,85,-99.99,,,0.35,13.000000,,2013-05-19 01:32:00,
2013-05-18 20:42:00,72.0,67.0,-100.00,SE,136,0.0,1.0,85,-99.99,,,0.35,13.000000,,2013-05-19 01:42:00,
2013-05-18 20:52:00,72.0,67.0,-100.00,SE,136,0.0,1.0,85,-99.99,,,0.35,13.000000,,2013-05-19 01:52:00,
2013-05-18 21:01:00,72.0,67.0,-100.00,SE,136,0.0,1.0,85,-99.99,,,0.35,13.000000,,2013-05-19 02:01:00,
2013-05-18 21:32:00,69.0,68.0,-100.00,ESE,121,0.0,0.0,97,0.00,,,0.35,0.000000,,2013-05-19 02:32:00,
2013-05-18 21:42:00,69.0,68.0,-100.00,ESE,121,0.0,0.0,97,0.00,,,0.35,0.000000,,2013-05-19 02:42:00,
2013-05-18 21:52:00,69.0,68.0,-100.00,ESE,121,0.0,0.0,97,0.00,,,0.35,0.000000,,2013-05-19 02:52:00,
2013-05-18 22:01:00,69.0,68.0,-100.00,ESE,121,0.0,0.0,97,0.00,,,0.35,0.000000,,2013-05-19 03:01:00,
2013-05-18 22:33:00,67.0,67.0,-100.00,South,175,0.0,0.0,100,0.00,,,0.35,0.000000,,2013-05-19 03:33:00,
2013-05-18 22:43:00,67.0,67.0,-100.00,South,175,0.0,0.0,100,0.00,,,0.35,0.000000,,2013-05-19 03:43:00,
2013-05-18 22:53:00,67.0,67.0,-100.00,South,175,0.0,0.0,100,0.00,,,0.35,0.000000,,2013-05-19 03:53:00,
2013-05-18 23:02:00,67.0,67.0,-100.00,South,175,0.0,0.0,100,0.00,,,0.35,0.000000,,2013-05-19 04:02:00,
2013-05-18 23:33:00,66.0,66.0,-100.00,East,101,0.0,3.0,100,0.00,,,0.05,0.000000,,2013-05-19 04:33:00,
2013-05-18 23:42:00,66.0,66.0,-100.00,East,101,0.0,3.0,100,0.00,,,0.05,0.000000,,2013-05-19 04:42:00,
2013-05-18 23:53:00,66.0,66.0,-100.00,East,101,0.0,3.0,100,0.00,,,0.05,0.000000,,2013-05-19 04:53:00,